• Join FlightAware (Why Join?)
  • Login
  • US Flag GB Flag 
18:48 EST


 

Airport Tracker/Info


-or-


 

Live Flight TrackerFlight Track Log ✈ DAL6032 ✈ 26-Apr-2013 ✈ KMEM - KCMH

Flight Track Log - Related Links

Times and Time Zones

All times are in EDT time to prevent confusion due to time zone crossing. See the DAL6032 flight status page for this flight to view local times or setup timezone preferences in your user account.

Time Position Orientation Groundspeed Altitude Reporting Facility
EDT Latitude Longitude Course Direction KTS MPH feet Rate Location/Type
20:59 35.0500 -89.9833 335° Northwest 164 189 1,000  Level KMEM
21:00 35.0833 -90.0000 338° Northwest 184 212 2,200 1,920 Climbing KMEM
21:01 35.1500 -90.0167 348° North 243 280 4,500 2,160 Climbing KMEM
21:02 35.2333 -90.0333 351° North 272 313 7,000 2,160 Climbing KMEM
21:03 35.4573 -90.1934 337° Northwest  Level FlightAware Approximate
21:04 35.5505 -90.2419 338° Northwest  Level FlightAware Approximate
21:04 35.3597 -90.1583 321° Northwest 277 319 11,600  Level Memphis Center
21:05 35.6531 -90.2994 335° Northwest  Level FlightAware Approximate
21:05 35.4267 -90.2144 326° Northwest 278 320 13,300  Level Memphis Center
21:06 35.5017 -90.2703 329° Northwest 298 343 15,000 1,380 Climbing Memphis Center
21:07 35.5936 -90.2931 349° North 322 371 16,100 1,200 Climbing Memphis Center
21:08 35.6853 -90.2572 18° North 321 369 17,500 1,020 Climbing Memphis Center
21:09 35.7811 -90.2189 18° North 340 391 18,200 840 Climbing Memphis Center
21:10 35.8875 -90.1778 17° North 373 429 19,200 1,140 Climbing Memphis Center
21:11 35.9917 -90.1389 17° North 386 444 20,500 1,380 Climbing Memphis Center
21:12 36.1000 -90.0950 18° North 397 457 22,000 1,500 Climbing Memphis Center
21:13 36.2061 -90.0536 17° North 397 457 23,500 1,440 Climbing Memphis Center
21:14 36.3103 -90.0119 18° North 397 457 24,900 1,320 Climbing Memphis Center
21:15 36.4186 -89.9700 17° North 397 457 26,200 1,260 Climbing Memphis Center
21:16 36.5228 -89.9258 19° North 402 463 27,500 1,260 Climbing Memphis Center
21:17 36.5931 -89.8142 52° Northeast 386 444 28,800 1,200 Climbing Memphis Center
21:18 36.6444 -89.6844 64° Northeast 386 444 30,000 1,020 Climbing Memphis Center
21:19 36.6856 -89.5756 65° Northeast 405 466 30,900 480 Climbing Memphis Center
21:20 36.7450 -89.4247 64° Northeast 423 487 31,000  Climbing Memphis Center
21:21 36.8000 -89.2739 65° Northeast 451 519 31,000  Level Memphis Center
21:22 36.8589 -89.1175 65° Northeast 478 550 31,000  Level Memphis Center
21:23 36.9178 -88.9583 65° Northeast 492 566 31,000  Level Memphis Center
21:24 36.9783 -88.7989 65° Northeast 497 572 31,000  Level Memphis Center
21:25 37.0344 -88.6417 66° East 497 572 31,000  Level Memphis Center
21:26 37.0928 -88.4869 65° Northeast 492 566 31,000  Level Memphis Center
21:27 37.1508 -88.3322 65° Northeast 487 560 31,000  Level Memphis Center
21:28 37.2086 -88.1744 65° Northeast 487 560 31,000  Level Memphis Center
21:30 37.2992 -87.9083 67° East 499 574 31,000  Level Indianapolis Center
21:31 37.3561 -87.7461 66° East 503 579 31,000  Level Indianapolis Center
21:32 37.4142 -87.5836 66° East 503 579 31,000  Level Indianapolis Center
21:33 37.4722 -87.4203 66° East 504 580 31,000  Level Indianapolis Center
21:34 37.5292 -87.2575 66° East 503 579 31,000  Level Indianapolis Center
21:35 37.5869 -87.0922 66° East 507 583 31,000  Level Indianapolis Center
21:36 37.6428 -86.9319 66° East 502 578 31,000  Level Indianapolis Center
21:37 37.6992 -86.7697 66° East 505 581 31,000  Level Indianapolis Center
21:38 37.7611 -86.6092 64° Northeast 509 586 31,000  Level Indianapolis Center
21:39 37.8658 -86.4506 50° Northeast 494 568 31,000  Level Indianapolis Center
21:40 37.9556 -86.3189 49° Northeast 494 568 31,000  Level Indianapolis Center
21:41 38.0442 -86.1842 50° Northeast 497 572 31,000  Level Indianapolis Center
21:42 38.1339 -86.0517 49° Northeast 497 572 31,000  Level Indianapolis Center
21:43 38.2242 -85.9156 50° Northeast 501 577 31,000  Level Indianapolis Center
21:44 38.3147 -85.7800 50° Northeast 502 578 31,000  Level Indianapolis Center
21:45 38.4047 -85.6444 50° Northeast 500 575 31,000  Level Indianapolis Center
21:46 38.4953 -85.5069 50° Northeast 506 582 31,000  Level Indianapolis Center
21:47 38.5847 -85.3703 50° Northeast 502 578 31,000  Level Indianapolis Center
21:48 38.6864 -85.2144 50° Northeast 503 579 31,000 -240 Level Indianapolis Center
21:49 38.7753 -85.0758 51° Northeast 503 579 30,600 -1,500 Descending Indianapolis Center
21:50 38.8639 -84.9400 50° Northeast 497 572 28,000 -2,460 Descending Indianapolis Center
21:51 38.9439 -84.8158 50° Northeast 475 547 25,600 -1,980 Descending Indianapolis Center
21:52 39.0236 -84.6886 51° Northeast 456 525 24,000 -1,200 Descending Indianapolis Center
21:53 39.1092 -84.5331 55° Northeast 453 521 23,200 -900 Descending Indianapolis Center
21:54 39.1836 -84.3989 54° Northeast 456 525 22,200 -960 Descending Indianapolis Center
21:55 39.2586 -84.2611 55° Northeast 462 532 21,300 -900 Descending Indianapolis Center
21:56 39.3250 -84.1203 59° Northeast 459 528 20,400 -960 Descending Indianapolis Center
21:57 39.3794 -83.9753 64° Northeast 448 516 19,400 -1,140 Descending Indianapolis Center
21:58 39.4342 -83.8328 64° Northeast 440 506 18,100 -1,860 Descending Indianapolis Center
22:00 39.4878 -83.6919 64° Northeast 436 502 15,700 -2,700 Descending Indianapolis Center
22:01 39.5342 -83.5706 64° Northeast 382 440 12,700 -2,220 Descending Indianapolis Center
22:02 39.5867 -83.4367 63° Northeast 353 406 11,000 -840 Descending Indianapolis Center
22:03 39.6317 -83.3522 55° Northeast 355 409 11,000 -240 Level Indianapolis Center
22:04 39.6889 -83.2497 54° Northeast 352 405 10,600 -780 Descending Indianapolis Center
22:05 39.7356 -83.1681 53° Northeast 296 341 9,500 -1,260 Descending Indianapolis Center
22:06 39.7783 -83.0892 55° Northeast 270 311 8,100 -1,380 Descending Indianapolis Center
22:07 39.8400 -83.0392 32° Northeast 239 275 6,800 -1,500 Descending Indianapolis Center
22:08 39.9042 -83.0361 North 231 266 5,100 -1,680 Descending Indianapolis Center
22:09 39.9717 -83.0483 352° North 239 275 3,500 -1,320 Descending Indianapolis Center
22:10 40.0083 -83.0089 39° Northeast 160 184 2,300 -1,080 Descending Indianapolis Center